CZ-6A DEB, 54414

Orbit data source: Space-Track

CZ-6A DEB, 54414 is space debris in SSO originally from a launch on Fri, 11 Nov 2022 UTC launched from the Taiyaun Space Center, China (TSC). Debris objects in space refer to the collection of defunct objects orbiting the Earth. Examples of debris include non-operational satellites, rocket bodies, and fragments generated from explosions, collisions, or faulty payload assembly.

Loading next visibility...
Identifier
54414, 2022-151EN
Orbit
SSO
Country
Flag of CNCN / PRC
Related business
Manufacturer
SAST
Mission
Spacecraft
Bus & Motor
Unknown
Mass
Unknown
Launch date (UTC)
2022-11-11 (4 years ago)
Launch vehicle
Unknown
Launch site
Taiyaun Space Center, China (TSC)
Object type
Payload
Rocket body
Debris
Shape & HBR
Unknown shape, 0.1 m
Radar Cross Section
Medium (>0.1 m² and <1 m²)

Expand to show TLE details & history
Last TLE update: 2 days ago

TLE from 2 days ago
0 CZ-6A DEB
1 54414U 22151EN  26171.43587551  .00001393  00000-0  97097-3 0  9995
2 54414  98.9551 149.5903 0119478  59.9425 301.3525 13.96884037183169
Epoch: 2026-06-20T10:27Z
TLE epoch observation values (Epoch: 2026-06-20T10:27:39.644Z)
Latitude
-0°
Longitude
84.02459°
Altitude
862.964 km
Speed
7.444 km/s
True Right ascension
09h 58m 21s
True Declination
0° 00' 00"
Sunlit
Object was in daylight at epoch
Visualization orbit readout
Latitude
Unknown
Longitude
Unknown
Altitude
Unknown
Speed
Unknown
Apparent Right ascension
Unknown
Apparent Declination
Unknown
Sunlit
N/A
Visualization observer readout
Local Sidereal Time
21:33:32
Azimuth
Unknown
Elevation
Unknown
Doppler factor
Unknown
Orbital elements
Apogee altitude
988.785 km
Perigee altitude
814.827 km
Semi-major axis
7,279.943 km
Eccentricity
0.01195
Inclination
98.9551°
RAAN
149.5903°
Arg. of periapsis
59.9425°
True anomaly
300.17423°
Mean anomaly
301.3525°
Eccentric anomaly
300.76427°
Mean motion
3.49423 °/min
Orbital period
103.03 mins
BSTAR
0.00097097
Loading maneuver chart data...
Computing Atmospheric mass density...
Loading historical data...
Loading historical data...
Loading historical data...
Loading historical data...
Loading historical data...
Loading historical data...
Loading historical data...

Documentation

Showing up to 5 results
|